星链-5823 (STARLINK-5823 )

导读

STARLINK-5823是美国太空探索技术公司(SpaceX)星链(Starlink)卫星互联网项目的卫星,于2023年3月3日发射,为星链星座组网补充卫星资源。它旨在为全球提供低延迟、高速率的卫星宽带互联网服务,尤其覆盖偏远及网络基础设施匮乏区域,推动全球互联网接入普及,是星链近地轨道星座部署中的一环。

Basic Information
目录编号:
55786
目录名称:
STARLINK-5823
国际标识:
2023-028AX
轨道中心:
EARTH
卫星名称:
星链-5823
卫星全名:
星链-5823 (STARLINK-5823 )
卫星状态:
在轨 (已飞行1200 天)
发射日期:
2023-03-03 UTC
国别 :
美国 (US)
星等 :
--
Orbit Information
数据来源 国际轨道数据 AOE轨道数据
星历时间 2026-06-15T04:00:05+0800
7小时前
查看轨道信息
2026-06-09T08:00:00+0800
6天前
查看轨道信息
半长轴 6950.245km 6950.195km
偏心率 0.0003155 0.0002835
轨道倾角 70.001° 70.002°
近地点辐角 272.719° 269.262°
升交点赤经 319.599° 334.309°
平近点角 151.187° 18.339°
近地点 569.915km 570.087km
远地点 574.301km 574.029km
周期 96.108分钟 96.107分钟
每日圈数 14.983134 14.983294
Detailed Information
固有亮度:
5
最大亮度:
2.5
卫星平台:
Starlink v1.5
覆盖范围:
全球
运营商:
太空探索技术公司
运营商所在国:
美国
制造商(研发单位):
太空探索技术公司
制造商所在国:
美国
使用方式:
暂无
Satellite Introduction
星链(Starlink)计划是由太空探索技术公司(SpaceX)提出的一个巨型低轨卫星互联网星座项目,计划在2019年至2024年间在太空搭建由约1.2万颗卫星组成的“星链”网络,其中1584颗将部署在地球上空550千米处的近地轨道,并从2020年开始工作。该卫星仍在工作。
2D Orbit Map
3D Orbit Map
Orbit Altitude Analysis Chart
Orbit Inclination Analysis Chart
Orbit Comprehensive Analysis Chart
View Comprehensive Chart